Dewpoint
51 51 52 51 51 51 51 49 46 46 45 45 44 43 43 42 41 41 41 41 41 40 40 39 40 39 39 39 39 39 38 38 39 39 39 40 41 41 40 40 38 39 40 38 39 39 39 38 38 38 38 38 38 38 38 36 37 37 37 37 36 36 36 36 36 36 36 35 34
51 51 51 50 50 51 51 49 47 46 46 46 45 44 44 43 42 41 41 40 41 41 41 40 39 39 39 40 39 39 38 38 39 39 40 40 41 40 40 41 39 39 40 39 39 39 39 39 38 38 37 37 38 38 37 35 35 36 37 36 36 36 36 37 36 36 36 36 35
52 51 51 51 52 52 52 50 48 46 46 46 46 45 45 44 43 42 41 41 40 40 41 40 39 39 40 40 39 39 39 38 39 40 41 41 41 41 41 41 40 39 38 39 39 39 39 39 38 37 37 36 37 37 37 36 36 36 36 36 36 36 36 36 36 36 36 36 36
51 52 52 52 53 53 52 50 48 47 47 47 46 46 45 45 44 43 42 42 42 42 41 40 38 38 38 39 39 39 39 38 39 40 40 41 41 41 41 41 40 39 39 40 39 39 39 39 38 37 37 36 36 36 36 37 36 36 36 36 36 36 36 36 36 36 36 36 36
52 52 52 53 54 53 52 50 50 49 48 47 47 47 46 45 44 44 44 43 45 45 44 40 38 37 37 38 39 39 39 38 38 39 41 41 41 41 41 41 41 40 40 40 39 39 39 39 38 38 37 36 36 36 36 36 36 36 36 36 36 36 36 36 36 36 36 35 35
52 52 53 54 54 54 52 51 50 50 49 48 48 47 46 45 46 46 45 44 43 43 42 39 37 36 36 39 39 39 39 39 39 40 41 40 41 41 41 41 41 40 39 40 40 40 39 38 38 37 37 37 35 35 36 36 36 36 36 36 36 36 36 35 35 35 35 34 34
52 53 53 54 54 53 52 51 50 50 49 48 49 48 47 46 46 46 46 45 44 43 41 38 38 37 37 39 39 39 40 40 41 41 41 41 41 41 41 41 41 40 40 39 39 39 39 37 37 37 36 36 36 36 35 36 36 36 36 36 36 36 35 35 35 35 35 34 34
52 53 53 54 53 53 52 51 50 50 50 49 48 48 48 47 46 46 46 45 44 42 40 38 38 38 38 37 37 38 39 39 40 41 41 41 41 41 40 40 40 39 38 37 38 38 38 37 37 37 36 37 36 36 36 36 35 36 36 35 36 36 35 32 33 34 35 35 35
53 53 54 54 53 53 52 51 51 50 50 50 49 49 50 49 47 46 46 45 43 41 39 38 38 38 38 37 36 36 37 37 39 40 41 41 41 40 40 40 39 38 37 37 37 36 36 37 37 37 37 36 36 36 36 35 33 34 35 36 36 36 36 35 34 35 35 35 35
53 53 54 54 54 53 52 51 51 51 51 50 50 51 50 48 47 47 46 44 41 40 39 38 37 37 37 37 36 36 36 37 37 38 39 39 38 38 38 38 38 37 37 36 36 36 36 37 37 37 37 37 36 35 34 33 32 32 34 36 35 34 34 35 35 35 35 34 35
53 53 54 54 54 53 52 51 51 51 51 50 50 51 50 48 48 47 46 43 41 41 40 38 38 37 36 36 36 36 36 36 37 37 37 37 37 37 37 37 37 37 36 36 36 36 36 36 36 35 35 37 36 34 32 32 32 32 32 34 33 33 32 34 34 34 33 32 33
53 53 54 54 54 53 52 51 51 50 50 51 50 50 50 49 49 47 45 44 43 41 40 40 39 37 36 36 36 36 36 36 36 37 37 37 37 36 37 37 37 37 36 36 35 35 35 35 35 34 34 36 35 33 32 31 31 31 31 32 32 32 32 32 32 32 32 32 32
53 53 54 54 54 53 52 51 51 50 50 51 51 50 50 49 48 46 45 45 43 41 40 40 38 37 37 36 36 36 36 36 36 37 37 36 36 36 36 36 36 36 36 35 35 34 34 34 34 33 33 34 34 34 32 31 31 30 30 31 32 32 32 32 32 32 32 32 32
53 53 53 53 53 53 52 51 51 51 51 51 51 51 50 49 47 46 45 45 43 41 40 39 38 38 37 36 36 36 36 36 36 37 36 37 37 36 36 36 36 36 36 35 35 34 33 33 33 33 33 32 34 34 34 32 31 30 30 30 31 32 32 33 32 32 32 33 32
52 53 53 53 53 53 52 52 51 51 51 51 51 51 50 49 47 46 45 45 43 41 41 40 39 38 38 38 37 36 36 36 36 36 36 36 37 36 36 36 36 36 35 35 35 35 33 33 33 32 32 32 32 33 33 32 32 31 31 31 32 32 33 33 33 33 33 35 33
52 52 52 53 53 53 52 52 52 51 51 51 51 51 50 49 48 46 45 45 43 42 41 40 39 39 39 38 37 36 36 36 36 36 36 36 36 36 36 36 36 36 35 34 35 35 35 35 34 33 32 32 32 32 32 32 32 32 32 32 33 34 34 34 34 34 34 36 35
51 52 52 52 53 53 52 52 52 52 52 52 52 51 50 49 48 46 45 45 43 42 41 40 39 39 39 38 37 37 36 36 36 36 36 36 36 36 36 36 36 35 35 34 34 34 34 36 36 36 34 34 33 33 32 32 34 34 34 35 36 36 36 35 35 35 35 35 34
51 51 51 52 52 53 52 52 52 52 52 52 51 50 50 48 47 46 45 44 44 43 41 40 39 39 39 38 38 38 37 36 36 36 36 36 36 36 36 36 35 35 34 34 33 33 33 33 35 36 36 36 35 34 33 33 33 34 35 36 36 36 36 36 37 36 36 35 33
50 51 51 52 52 52 52 52 52 52 52 52 51 50 49 48 47 46 45 44 44 43 42 40 39 39 39 38 38 38 37 38 36 36 36 36 36 36 35 35 35 34 34 33 33 32 32 33 34 36 36 36 36 35 34 33 33 33 34 36 36 36 37 38 38 37 36 34 33
50 50 51 51 52 52 52 52 52 52 51 51 50 49 48 47 46 45 45 44 44 43 42 41 40 40 39 39 38 38 37 38 37 36 36 36 36 35 35 35 34 34 33 33 32 32 32 32 34 36 36 36 36 35 34 33 33 33 34 36 36 37 38 38 38 37 36 34 33
50 50 50 51 52 52 52 52 52 51 51 50 49 48 47 47 46 45 44 43 44 43 42 41 41 41 41 40 39 38 37 38 37 36 36 35 35 35 34 34 34 33 33 33 32 32 32 32 34 35 36 36 36 35 34 32 33 33 35 36 37 38 39 39 38 37 36 35 34
49 50 50 51 51 52 52 52 51 51 50 49 48 47 47 46 45 45 44 44 44 43 43 44 44 43 41 41 39 38 38 38 37 36 36 35 35 34 34 34 33 33 33 33 33 33 33 35 35 36 36 36 35 34 33 32 32 33 35 36 38 38 39 39 38 37 36 35 34
49 50 50 50 51 51 51 51 51 50 49 48 47 46 46 45 45 45 45 45 44 44 45 45 46 45 43 41 40 39 38 38 38 37 36 36 35 34 34 35 35 34 34 34 34 34 35 36 36 36 35 35 33 32 32 32 32 33 35 36 38 38 38 38 37 37 36 35 34
50 50 50 50 50 50 50 51 51 50 49 47 46 47 47 46 45 45 45 45 44 44 45 45 46 46 45 43 41 40 39 38 37 37 37 37 36 36 35 35 36 35 36 39 39 39 39 39 38 36 34 34 32 32 32 34 33 33 35 36 37 38 38 37 37 36 36 35 34
50 49 49 49 49 50 50 50 50 50 48 46 46 46 46 46 46 45 44 43 44 44 45 45 45 46 47 47 43 41 39 38 38 37 37 37 37 38 38 38 37 38 39 40 40 39 39 38 38 36 33 32 32 33 34 36 36 36 36 37 38 38 37 37 37 36 36 34 34
50 49 48 48 48 48 48 48 48 48 47 46 46 46 46 46 46 45 44 42 42 43 44 44 44 44 45 48 44 41 39 39 39 38 37 37 37 40 41 41 41 41 41 40 38 38 37 37 36 35 33 33 32 34 35 36 37 38 38 38 38 38 38 38 37 37 36 35 34
48 47 46 45 45 45 45 46 46 46 46 45 45 46 46 46 46 45 44 42 42 42 43 43 44 44 44 47 43 41 40 41 41 39 38 38 38 39 40 40 41 41 41 38 37 37 36 36 36 35 35 35 35 35 36 37 38 39 39 39 39 38 38 38 38 38 36 35 34
46 45 44 43 43 43 43 44 44 44 44 45 45 45 45 45 45 45 45 43 42 42 41 42 43 45 45 46 43 41 41 41 41 41 40 39 38 38 38 39 40 40 39 36 36 36 36 36 36 35 35 35 37 38 38 39 39 39 39 39 39 39 39 39 38 37 36 35 34
45 45 44 43 43 42 42 42 42 42 43 43 43 43 43 44 44 44 44 44 43 42 42 42 43 44 45 44 42 41 41 41 41 41 40 39 38 38 38 39 39 38 37 36 36 36 36 36 35 35 36 37 38 39 40 39 39 39 39 40 40 40 39 39 37 36 35 35 35
45 44 44 43 43 42 42 42 42 41 41 41 41 41 42 42 42 42 42 42 42 43 43 44 44 43 43 42 42 41 41 41 40 39 39 38 37 37 37 38 38 37 36 36 36 36 36 36 36 36 36 37 37 38 39 39 40 40 41 41 41 40 38 36 36 35 35 35 35
44 44 44 43 43 42 42 41 41 41 41 41 41 41 41 41 40 40 41 41 42 42 42 44 42 42 41 42 42 41 41 40 40 39 38 37 36 37 38 38 36 35 35 36 36 36 36 36 36 36 36 36 37 39 41 41 41 41 41 41 40 38 36 35 35 35 35 35 35
43 43 42 42 42 41 41 41 41 40 40 40 40 39 39 39 41 41 42 41 41 41 42 43 41 41 41 41 41 41 40 39 39 38 37 37 36 36 36 36 34 34 35 36 36 36 36 36 37 37 37 36 37 39 41 41 42 42 41 40 37 36 35 33 34 34 35 35 35
42 41 41 41 41 40 40 40 40 40 40 39 39 38 38 38 41 41 40 40 41 41 41 41 39 39 40 40 40 40 39 38 37 36 36 36 36 36 36 35 34 34 35 36 36 36 36 37 37 37 36 36 38 39 41 41 41 41 40 38 36 35 34 34 34 34 34 34 34
40 40 40 39 39 39 39 39 39 40 40 39 38 37 38 38 39 38 37 39 41 41 41 41 40 40 40 39 39 39 37 36 36 36 36 36 36 36 35 33 32 33 36 36 36 36 36 36 37 37 36 36 38 39 40 41 40 39 37 36 35 34 34 34 34 34 33 33 33
39 38 38 38 38 37 38 38 38 39 39 37 37 39 40 40 38 38 39 39 39 40 41 41 41 40 39 39 39 38 36 35 35 36 36 35 35 35 34 33 33 34 36 36 36 36 36 36 36 36 36 36 37 39 39 39 38 37 36 34 34 33 33 33 33 33 33 33 33
38 37 37 37 37 37 37 37 37 37 37 38 40 41 41 41 41 41 40 37 38 39 40 40 40 40 39 38 38 37 36 36 35 35 35 34 35 35 35 35 35 36 36 36 36 36 36 36 36 36 36 37 37 37 37 36 36 35 34 34 34 34 34 34 34 34 35 35 35
37 37 37 37 37 37 37 37 37 36 37 40 41 41 40 39 40 41 40 37 38 39 39 39 39 38 38 37 37 36 36 37 37 36 35 33 33 35 36 37 37 36 36 36 36 36 36 36 36 36 36 36 36 36 35 34 34 34 34 34 34 34 35 35 36 36 36 36 36
37 37 38 38 37 36 37 37 38 38 38 41 41 41 40 39 39 39 39 36 37 37 37 38 38 37 37 37 36 36 36 37 37 36 36 34 34 35 36 38 38 37 36 36 36 36 36 36 36 36 35 35 35 35 34 34 34 34 35 35 35 36 36 37 38 38 38 37 37
37 37 37 37 36 36 36 36 38 39 40 41 40 40 40 40 40 39 37 35 36 36 36 36 36 36 37 36 36 36 37 37 37 37 36 35 34 35 36 37 37 36 36 36 36 36 36 36 36 35 35 34 35 35 35 36 36 36 37 37 38 38 39 39 39 38 38 37 37
37 37 37 36 36 36 36 36 38 40 41 41 39 38 38 39 38 37 36 36 37 37 36 36 36 36 37 36 36 36 36 36 37 36 35 34 34 35 36 36 37 36 35 35 35 36 36 36 35 35 35 34 36 36 37 38 38 38 38 38 38 38 38 37 37 37 37 37 37
37 36 36 36 36 36 36 36 38 40 41 41 39 38 38 38 37 36 36 37 37 37 36 36 36 36 36 35 35 36 36 35 36 36 34 34 35 36 37 37 38 37 36 34 35 35 35 35 35 35 35 35 37 38 38 39 38 38 37 37 36 36 36 36 36 36 36 36 36